Location: Bakhuizen
(52.8696°N, 5.4575°E)
Time: 17:06:46
(UTC+00:00)

SL-27 R/B - Pass Details

Date: 11 May 2021
Orbit: 417 x 468 km, 74.7° (Epoch: 21 June)

Event Time Altitude Azimuth Distance (km) Brightness Sun altitude
Rises 22:48:12 0° 340° (NNW) 2,383 7.7 -18.3°
Reaches altitude 10° 22:50:21 10° 349° (N) 1,516 6.4 -18.4°
Maximum altitude 22:53:29 38° 59° (ENE) 664 3.4 -18.4°
Enters shadow 22:54:22 31° 97° (E) 767 3.4 -18.5°
